Wind_Speed
31 29 27 25 26 26 23 22 22 24 25 23 23 23 19 14 9 8 11 9 9 16 19 17 19 22 21 22 24 25 25 25 25 25 27 29 30 31 32 33 34 33 33 31 29 27 27 28 30 31 31 32 33 35 37 33 28 29 30 28 28 35 43 48 49 49 50 48 45 43 41 39 38 36
28 28 26 25 24 23 21 21 23 23 23 23 23 23 24 21 14 9 10 10 10 15 19 19 19 22 22 20 20 21 22 23 23 24 26 28 29 30 31 32 34 34 32 32 31 28 27 27 28 29 30 31 32 33 34 34 31 30 30 28 26 31 39 46 50 51 49 47 45 43 42 40 38 36
27 27 26 24 22 21 20 22 23 22 22 23 24 24 24 25 22 16 9 9 16 19 17 19 21 23 23 20 17 18 19 19 21 22 24 26 28 29 30 32 33 34 33 32 32 30 28 27 28 28 29 30 31 32 34 37 36 32 29 28 26 28 36 44 48 50 49 47 44 42 42 40 38 37
26 25 25 24 22 21 21 22 22 22 24 25 25 24 24 24 23 21 13 8 18 25 23 22 25 26 25 22 17 16 16 17 19 21 23 24 26 27 29 31 32 33 34 33 33 32 30 28 28 28 28 28 30 31 34 38 39 35 31 29 26 25 33 42 47 48 49 47 44 43 42 39 39 40
23 23 26 25 23 22 22 22 23 24 25 25 24 23 22 23 23 23 17 9 13 24 25 23 25 27 25 24 21 17 15 16 18 20 21 23 25 27 28 29 31 32 34 35 34 33 32 30 29 29 28 27 28 28 31 36 38 36 34 34 30 24 25 35 44 47 48 46 44 44 43 40 40 42
21 21 25 25 23 22 22 23 23 23 23 23 23 23 23 24 25 24 21 14 11 16 19 19 21 23 23 24 23 20 17 16 17 19 21 22 23 25 26 28 30 31 33 35 35 34 33 31 31 30 28 28 28 26 29 33 36 35 33 34 35 29 21 25 38 46 45 44 44 44 43 42 41 42
19 19 24 24 22 22 22 23 23 22 23 22 23 25 25 25 26 26 24 19 12 11 14 15 17 20 21 22 22 20 19 16 15 18 20 21 22 23 24 26 28 29 31 34 35 35 34 32 32 32 30 30 29 27 27 30 34 34 33 31 32 32 25 19 29 45 47 44 46 46 45 45 43 41
18 19 24 23 22 23 23 23 24 23 24 25 24 25 26 25 25 25 25 24 19 14 11 11 15 19 20 20 18 17 16 14 14 16 18 19 21 22 22 23 25 26 27 29 32 34 35 34 33 33 32 31 30 29 28 28 32 33 33 32 29 29 29 20 20 39 51 46 47 50 45 45 46 43
21 18 22 22 22 23 23 24 25 24 26 27 26 26 27 24 24 25 26 25 23 18 11 9 13 18 19 17 15 14 14 12 11 13 16 18 19 20 20 21 22 23 23 24 28 31 33 34 33 34 34 34 32 30 29 27 30 32 32 33 31 29 31 25 17 30 51 50 47 50 46 45 46 45
24 19 20 22 22 23 25 25 26 27 28 28 27 27 26 23 24 26 26 24 23 19 13 10 11 14 14 13 12 12 13 12 10 10 12 15 17 18 19 18 18 19 19 20 24 28 30 31 32 33 34 34 32 31 29 27 27 30 29 30 31 30 30 29 20 22 42 52 49 48 46 45 45 45
23 21 22 23 25 27 27 26 27 29 29 29 28 26 23 23 25 25 24 23 20 16 11 9 10 10 10 11 11 11 11 12 12 11 9 9 12 15 17 17 17 16 17 17 20 24 27 29 31 32 34 34 33 31 30 27 26 27 27 25 28 29 30 31 26 20 28 43 49 48 45 44 45 45
21 22 24 24 27 29 28 28 28 29 29 30 28 24 22 24 25 25 24 20 17 13 8 6 8 7 6 9 12 11 10 8 9 12 11 8 10 14 14 15 16 17 17 17 18 21 25 28 29 30 32 34 34 31 29 28 27 26 25 23 25 29 30 30 29 24 22 29 38 43 45 45 45 45
21 22 24 26 27 28 28 30 29 30 31 29 25 23 25 25 24 24 23 18 15 13 8 4 5 4 4 6 9 8 9 9 9 12 13 9 12 15 12 11 13 16 17 17 18 20 22 25 27 28 30 32 33 32 30 28 28 26 25 23 24 28 30 27 26 27 26 25 28 35 40 43 45 45
23 23 25 27 28 28 30 30 30 32 31 27 25 25 25 24 22 22 20 17 16 13 8 6 5 2 3 5 9 8 9 13 13 13 12 10 11 13 10 7 8 12 17 17 17 18 19 22 23 25 28 31 31 32 32 30 29 27 26 26 25 27 30 29 26 27 28 27 27 30 35 40 43 44
23 24 27 28 28 29 30 29 31 33 29 26 27 26 23 22 22 21 19 17 18 14 9 9 8 5 4 5 5 6 8 12 15 14 14 13 11 8 6 4 5 10 15 17 16 15 16 19 20 21 24 27 28 31 34 33 31 28 27 27 26 26 28 30 30 29 29 29 28 29 32 38 43 44
24 25 27 28 28 29 28 29 34 33 27 26 27 24 22 22 22 23 21 19 19 17 12 9 9 8 8 9 8 4 4 9 12 13 14 15 12 8 5 4 5 11 15 16 14 12 14 17 18 19 20 22 26 29 32 33 33 31 28 25 24 25 25 27 30 32 32 31 30 29 31 35 39 42
24 26 27 28 30 29 27 30 34 30 26 27 27 23 23 24 24 25 23 21 20 18 15 11 11 14 13 11 12 11 4 6 10 9 9 12 12 9 7 6 8 13 17 16 12 9 12 15 16 18 19 19 21 25 28 30 33 33 30 27 25 25 25 26 29 32 33 33 32 31 32 32 33 36
23 26 27 29 31 30 29 31 33 30 27 27 27 25 24 25 27 27 25 25 23 19 17 15 15 18 18 14 15 15 9 0 7 8 8 11 11 8 8 7 8 13 17 16 11 6 9 14 14 15 17 17 18 21 24 27 31 33 32 29 27 27 27 28 30 32 34 34 33 34 34 33 32 34
23 25 26 30 32 30 29 32 33 32 28 26 26 25 24 26 26 25 24 25 25 22 21 20 19 21 21 20 22 21 15 9 1 6 8 10 11 10 8 7 6 11 16 15 9 5 8 14 13 11 13 15 16 18 20 22 27 30 32 31 30 29 30 30 31 33 34 35 35 36 35 35 35 35
24 25 27 32 33 28 29 32 33 32 28 26 27 25 25 26 25 24 26 27 25 24 23 22 23 24 24 26 29 27 22 17 8 3 7 9 11 10 6 4 4 7 12 11 7 4 7 13 13 10 10 12 13 15 17 18 22 26 30 31 32 32 33 33 33 33 33 36 38 38 37 38 41 41
25 25 27 33 34 30 30 32 33 33 28 26 28 26 26 27 26 27 33 35 31 28 27 26 27 28 28 29 30 30 28 24 18 11 7 6 8 7 3 2 2 4 7 9 7 5 7 12 12 11 11 11 12 12 13 15 18 21 26 29 32 33 34 35 35 34 33 35 40 40 37 37 40 40
25 26 28 32 34 32 32 32 33 33 29 26 28 27 27 28 26 28 35 37 35 33 31 29 29 29 29 30 30 30 30 29 27 23 16 10 5 3 2 2 3 3 5 8 7 5 5 11 12 11 10 8 9 12 12 13 15 18 21 26 29 32 33 34 35 35 33 34 39 42 40 36 33 32
26 27 28 32 34 33 33 32 32 33 30 27 27 26 26 27 25 27 31 32 32 34 34 32 33 32 31 31 30 29 28 28 29 28 24 20 14 6 3 4 3 2 2 6 8 4 4 9 11 9 7 4 5 11 13 12 13 16 18 21 25 28 31 31 32 32 31 32 35 40 42 39 33 28
27 28 29 32 34 34 33 33 32 33 32 29 27 26 26 26 26 28 30 29 28 30 32 35 36 35 33 32 31 29 28 27 28 29 27 24 20 13 8 6 4 3 3 3 8 6 4 8 10 8 5 2 2 8 13 14 14 14 15 17 20 23 26 27 28 29 29 29 30 33 38 41 38 32
25 28 29 32 34 34 34 33 33 33 33 31 30 29 28 26 26 28 30 30 28 28 31 37 40 38 36 35 33 32 30 28 28 29 27 25 22 18 13 9 5 5 7 4 5 5 4 7 9 7 4 3 4 6 9 12 15 15 14 15 16 18 20 22 24 25 26 26 27 28 31 37 40 36
25 28 29 30 32 32 32 33 33 33 33 32 32 33 31 29 29 29 30 30 30 30 32 36 40 39 39 39 37 35 33 30 28 28 27 25 23 20 16 12 7 5 6 6 2 4 4 5 8 7 4 3 3 5 6 6 11 16 17 15 15 15 16 18 20 21 23 24 26 27 28 31 35 36
25 28 28 28 29 30 31 32 32 32 33 33 33 35 34 31 30 31 32 32 31 31 31 31 31 32 33 36 38 37 34 31 29 27 25 24 23 20 16 13 10 6 3 3 3 1 2 3 5 6 5 4 3 3 3 3 6 13 17 17 17 16 15 16 17 18 19 21 23 24 26 27 29 32
24 26 26 26 27 28 29 30 31 32 33 33 34 35 35 33 32 33 33 33 31 31 31 28 25 26 28 30 33 34 32 30 28 25 22 21 21 19 15 11 10 8 3 1 1 0 0 1 2 4 6 6 4 2 2 3 5 11 14 14 16 18 18 17 16 16 17 18 20 22 24 26 27 28
21 22 24 25 28 29 29 32 34 34 33 32 33 34 35 36 35 33 33 33 31 30 28 24 22 25 29 30 30 30 28 27 27 24 21 19 19 18 14 10 10 11 7 3 2 2 2 2 2 2 4 7 6 4 5 5 5 11 14 13 13 16 19 20 19 18 17 16 18 21 23 25 27 28
24 25 27 29 31 30 28 29 31 31 31 33 35 36 38 38 36 34 33 32 30 26 24 24 24 26 29 29 29 30 28 27 28 27 24 22 21 20 18 14 12 13 12 9 4 3 5 4 3 2 3 6 7 6 7 6 6 10 15 15 13 11 15 19 20 20 21 19 18 19 19 21 24 26
29 29 28 28 29 28 27 28 31 33 35 38 39 39 39 38 36 32 31 30 28 26 25 26 26 29 30 30 32 34 31 28 28 28 26 24 23 22 20 15 13 15 14 12 9 5 4 6 6 3 3 5 6 7 7 7 7 10 14 16 14 10 12 19 21 20 23 23 20 18 18 19 21 23
28 28 30 33 35 36 37 37 39 40 39 38 38 37 37 37 36 33 32 32 31 30 28 28 28 30 32 33 35 37 34 30 29 28 27 25 23 21 18 13 11 14 16 15 14 11 5 4 7 7 5 5 6 7 7 7 8 10 13 16 16 11 10 18 22 21 21 21 20 21 22 22 22 23
30 32 35 38 39 39 39 38 38 39 38 37 37 36 35 36 36 35 35 35 34 32 30 30 30 30 31 31 33 35 36 34 31 27 26 25 23 21 18 12 11 13 14 15 17 15 10 4 4 7 7 6 7 7 7 6 8 10 12 14 16 12 9 14 21 22 21 20 20 20 22 24 25 26
33 33 33 33 33 33 32 32 32 33 34 34 35 35 35 35 35 34 33 34 33 32 31 31 30 29 30 31 31 32 35 36 32 27 25 25 23 21 17 13 13 15 14 15 17 17 13 8 4 5 7 7 7 7 8 7 8 10 11 13 16 15 11 12 17 21 22 22 22 20 19 22 26 27
33 31 28 28 28 28 28 28 28 29 30 31 32 33 33 34 34 33 32 32 33 32 31 31 31 30 30 30 30 31 33 34 31 27 27 28 25 21 17 13 13 16 15 15 18 20 17 11 5 3 4 5 5 6 8 9 9 10 10 12 14 15 14 12 14 18 21 21 21 19 16 17 21 25
29 27 25 25 25 26 26 26 26 27 28 29 29 30 31 32 33 33 31 30 31 30 30 30 30 30 29 29 30 31 32 33 30 27 27 27 25 21 17 13 14 15 15 15 19 22 20 12 5 5 2 1 2 3 5 9 12 11 11 12 13 14 15 14 13 16 19 20 20 19 15 15 19 24
26 24 24 23 23 24 24 24 25 26 26 27 28 28 28 29 31 31 30 30 31 31 30 29 29 29 29 29 29 30 30 29 26 24 24 24 22 20 18 16 16 16 16 18 20 21 21 15 6 4 3 2 2 2 3 6 11 14 13 13 14 14 15 14 14 15 18 19 19 19 17 15 18 22
24 23 23 22 23 23 23 24 25 25 26 27 27 27 27 28 30 30 30 32 32 32 31 31 30 30 30 30 29 29 29 26 23 22 23 22 20 19 18 17 17 17 18 19 19 19 20 18 13 8 5 1 2 2 1 3 8 14 17 15 15 15 16 16 16 16 17 17 17 17 15 13 13 15
23 22 21 21 22 22 23 23 24 24 25 26 26 27 28 29 30 30 31 32 32 32 31 31 31 30 30 31 30 28 26 24 21 21 23 21 19 19 19 18 17 18 18 17 17 19 19 17 16 16 12 7 6 7 7 4 4 11 16 18 16 16 18 19 17 16 16 17 16 14 12 10 9 9
22 21 21 21 21 22 22 23 23 23 24 25 25 25 26 27 28 29 29 30 31 31 31 31 31 31 31 31 31 28 26 24 22 21 22 20 18 19 20 18 17 17 16 14 15 17 17 18 19 20 19 16 15 14 13 9 5 5 11 16 17 16 16 17 18 16 16 16 17 14 12 10 8 7
21 21 21 20 20 21 21 22 23 23 24 24 25 25 26 26 26 25 26 28 29 30 30 31 31 31 31 31 30 29 27 25 25 24 23 21 20 21 21 19 18 17 15 13 14 16 19 22 24 22 19 17 13 10 7 5 2 3 7 12 15 16 15 15 16 15 15 16 18 16 13 11 10 9
20 19 19 19 19 20 20 21 22 22 23 24 25 25 25 26 25 25 26 28 29 29 30 31 30 30 31 30 29 28 26 25 26 27 26 24 23 23 22 20 19 19 17 14 15 20 23 25 25 22 18 15 11 6 3 3 3 5 7 8 11 14 16 15 15 15 14 15 16 15 12 9 7 6
19 18 18 18 18 19 19 20 20 21 22 23 23 24 25 26 26 27 27 28 29 29 29 30 30 30 30 30 29 28 26 25 26 27 26 25 24 22 21 21 20 20 18 17 19 23 25 26 27 24 19 16 13 9 3 1 2 4 7 7 8 11 13 15 16 16 16 16 16 16 14 11 8 6
18 17 17 17 17 17 18 18 19 20 20 22 22 23 24 25 25 26 26 27 27 28 28 29 29 30 30 29 29 28 27 25 26 26 25 25 23 21 21 22 21 20 20 20 21 23 26 27 27 23 18 15 14 12 8 6 4 3 5 6 7 9 11 13 15 17 19 19 19 18 18 18 16 13
16 16 16 15 16 16 16 17 18 18 19 20 21 22 23 24 24 25 26 26 27 27 28 28 29 29 29 28 28 28 27 27 27 27 25 25 25 23 22 23 23 21 21 21 20 22 24 25 24 22 18 17 17 14 11 10 9 7 5 5 6 9 10 11 13 15 18 20 21 21 21 20 19 17
Wind_Direction
310 308 305 301 294 289 287 289 292 292 290 288 286 284 281 278 283 290 286 284 289 286 280 280 288 285 273 267 265 260 258 259 255 249 246 243 240 238 235 233 232 230 228 230 230 227 227 229 232 235 234 233 230 225 226 230 229 226 221 220 222 217 213 210 204 199 196 193 193 192 191 192 193 194
317 313 308 306 301 294 292 295 295 292 291 291 289 286 282 276 271 273 283 283 281 283 280 275 278 284 279 270 266 262 259 262 259 251 247 244 240 237 234 231 229 227 226 228 230 229 227 229 230 232 234 232 229 224 221 224 230 232 228 227 225 216 210 205 200 196 195 193 193 192 192 194 195 198
322 318 314 310 306 303 301 300 299 297 297 295 291 288 283 275 269 269 275 284 280 274 271 273 276 280 280 272 267 266 265 265 262 254 248 246 243 237 233 231 228 225 225 226 229 231 229 228 227 229 232 231 231 226 219 221 229 235 233 229 226 219 211 204 198 196 196 195 194 194 195 196 198 203
323 322 319 313 309 310 309 307 306 303 300 296 291 288 285 279 276 277 275 277 282 275 265 268 274 277 278 273 269 272 273 271 265 256 251 248 244 237 232 231 229 225 223 223 227 231 231 227 225 227 230 230 229 227 222 221 227 235 235 227 221 217 211 205 201 197 196 196 196 196 197 199 201 204
322 326 324 315 309 313 314 311 307 302 299 298 297 296 296 294 290 286 280 277 284 277 265 261 269 274 273 267 265 270 275 277 268 258 253 249 243 236 232 231 231 227 223 221 223 227 230 228 225 225 227 227 225 222 222 221 223 231 233 225 220 217 209 205 203 198 195 196 197 197 198 199 199 200
319 327 328 318 311 313 313 311 308 306 305 305 305 304 302 298 292 285 281 280 283 276 264 256 265 274 270 261 260 262 268 276 271 258 252 247 242 238 234 231 231 230 225 221 220 223 226 228 227 225 223 225 223 219 219 218 218 224 226 221 221 223 216 204 202 198 195 196 197 196 196 197 198 199
320 329 331 321 314 317 316 314 313 311 311 308 306 303 299 293 290 286 282 280 281 276 263 256 263 273 269 259 256 258 260 267 266 256 250 246 241 239 235 232 233 233 228 222 218 219 222 224 225 225 223 223 222 220 219 217 216 220 223 219 221 226 225 211 203 199 194 194 195 195 195 197 198 198
328 332 332 324 321 323 320 317 314 312 310 308 305 302 297 292 292 293 290 286 287 284 268 255 261 267 264 257 256 255 253 256 255 250 247 243 239 238 235 233 235 237 232 223 217 217 219 221 222 224 224 223 223 221 219 218 218 220 223 222 223 229 228 223 211 199 194 193 194 194 196 198 198 196
333 331 332 329 327 325 320 314 311 311 310 308 306 302 297 297 300 302 297 292 292 291 278 257 259 261 258 257 258 252 243 241 241 238 238 239 237 236 235 234 236 239 234 223 215 214 216 219 222 223 224 224 224 223 221 218 218 219 221 223 225 229 227 225 226 204 195 192 193 194 196 197 197 196
335 332 331 326 323 321 314 308 308 310 310 308 307 302 300 305 309 306 300 295 295 293 280 263 259 257 255 254 254 251 240 229 218 214 224 231 232 231 229 228 231 235 233 221 212 212 213 215 220 222 224 224 224 225 224 220 217 214 215 219 221 225 225 222 229 216 196 190 191 194 196 197 197 197
337 335 329 323 321 319 313 308 309 312 312 310 308 306 309 315 314 310 305 301 299 296 277 256 254 259 262 255 251 250 239 226 213 198 194 210 218 218 218 217 219 222 224 218 211 212 213 213 216 219 223 224 224 225 226 224 220 212 207 210 212 217 225 224 224 224 202 190 189 192 195 197 197 197
339 336 329 324 324 321 316 314 314 314 313 310 307 313 322 322 318 317 315 310 310 312 298 259 253 265 272 256 250 244 224 213 211 199 191 189 193 197 203 208 210 211 211 209 206 210 212 212 213 216 221 224 224 222 223 226 225 216 207 205 203 206 217 223 221 219 209 196 192 192 194 197 197 197
339 334 327 325 325 322 320 320 319 317 315 313 318 327 329 325 324 323 320 320 329 332 323 289 262 265 274 247 240 233 208 202 205 198 195 190 182 180 178 187 201 206 205 201 200 204 207 208 209 211 216 221 223 220 220 224 228 223 215 211 205 201 205 213 220 219 214 207 203 200 198 197 197 198
339 334 327 325 325 324 322 320 319 319 318 324 336 336 329 328 327 322 320 330 343 343 335 335 334 315 294 248 232 229 214 207 204 196 189 182 173 168 160 162 184 197 196 190 187 194 201 203 204 207 211 216 220 219 217 220 225 225 222 219 214 206 202 204 215 222 220 216 212 209 207 201 198 199
337 333 328 326 326 326 322 320 323 324 326 337 342 335 330 332 331 329 332 340 345 342 333 343 356 355 334 307 257 234 216 204 198 195 190 178 168 167 163 160 172 184 187 181 173 179 191 197 200 203 208 211 215 217 216 216 220 224 225 223 219 213 205 203 210 216 220 220 215 214 214 207 200 200
338 333 328 325 326 326 323 325 329 331 338 346 342 336 336 338 340 344 346 346 342 337 331 338 350 345 337 343 350 341 231 202 187 185 188 180 175 179 180 169 167 175 181 176 164 167 183 192 198 203 205 207 210 213 214 213 215 221 223 221 218 216 212 208 210 214 220 221 216 212 214 209 203 202
339 335 330 326 326 329 331 333 336 341 348 347 342 341 343 344 349 352 351 350 345 337 333 328 328 338 341 340 351 1 346 209 189 177 175 174 175 177 172 167 165 171 178 174 156 154 176 185 194 203 206 207 207 209 211 211 213 217 219 216 213 214 214 211 212 215 220 223 219 213 212 211 210 211
342 337 334 330 327 332 339 341 344 350 353 348 345 347 347 347 353 355 354 355 350 342 342 337 332 344 354 360 6 13 19 72 199 190 174 169 172 170 167 169 169 173 179 177 158 147 177 181 186 200 206 209 210 210 209 209 211 213 216 215 214 214 215 215 215 216 217 221 222 219 213 212 217 220
347 340 338 334 331 339 346 347 352 357 357 350 348 350 349 348 350 351 352 354 350 345 350 355 359 6 15 27 29 28 32 32 15 198 185 175 170 158 151 154 163 171 178 178 167 149 172 178 179 186 197 204 209 213 212 209 209 211 212 213 213 214 216 218 219 220 217 216 220 222 217 214 216 218
349 345 344 339 337 346 353 353 357 2 1 355 352 353 352 351 349 349 355 1 0 360 6 13 19 26 35 41 40 40 41 36 35 131 155 152 148 141 133 123 134 161 174 180 169 133 158 174 173 168 177 188 196 205 211 209 208 208 209 209 210 211 215 217 220 222 219 213 216 221 220 216 214 213
350 349 349 344 344 354 359 357 1 7 7 1 357 355 354 354 352 352 359 7 11 15 23 28 32 39 45 46 45 45 44 42 47 66 90 122 134 132 118 94 101 138 166 174 158 120 149 171 166 157 165 178 181 186 196 201 203 205 205 206 207 208 211 214 216 220 220 213 212 218 221 216 211 206
352 352 352 349 351 359 3 2 5 10 12 7 1 358 356 357 358 355 357 3 10 17 25 30 33 39 43 44 44 43 43 44 47 46 35 28 60 100 96 87 99 107 138 161 153 116 140 163 157 145 150 165 177 179 182 186 190 196 201 203 206 207 208 211 213 216 218 214 211 215 219 218 211 204
352 354 353 351 356 3 6 6 9 13 16 13 7 3 2 2 0 356 356 359 5 14 20 23 26 31 34 36 37 38 40 42 43 41 32 24 25 32 59 73 85 83 112 166 163 131 130 156 155 146 139 140 180 186 184 180 180 186 192 197 203 206 208 210 212 213 214 213 212 213 216 218 219 214
351 354 353 352 358 5 8 9 12 14 17 16 13 11 11 8 1 357 1 5 7 13 19 22 24 26 26 28 30 32 35 36 35 35 33 27 21 18 29 47 60 55 48 149 169 152 131 155 159 152 142 114 140 178 187 186 182 182 185 188 195 201 205 208 210 211 211 211 211 211 211 214 219 220
351 352 352 352 358 6 9 11 13 15 17 18 16 15 16 13 7 5 7 10 12 16 21 25 25 23 21 23 24 25 26 26 24 26 28 27 23 19 17 22 34 50 46 62 167 164 132 151 164 153 120 91 107 146 174 187 190 190 190 188 189 191 196 202 206 207 208 208 208 209 208 209 214 219
353 353 353 354 358 6 10 13 14 16 17 18 17 17 15 14 13 13 13 14 15 17 21 23 22 19 16 15 15 15 16 16 15 16 19 23 24 23 22 23 24 27 33 41 111 171 148 150 169 166 130 93 110 131 143 171 192 195 197 197 196 192 191 194 196 200 203 204 204 205 206 206 209 214
355 356 356 356 0 7 12 14 15 16 17 18 17 17 16 15 15 17 18 19 19 19 20 20 16 12 9 7 6 6 5 6 8 9 12 18 21 21 23 29 31 26 19 37 59 154 174 157 171 181 170 139 115 122 129 140 185 194 196 200 203 203 201 198 196 194 195 198 200 200 202 205 206 207
359 359 359 360 4 9 13 14 16 18 17 17 17 17 17 17 18 19 19 19 20 21 21 18 11 5 3 2 1 359 359 2 5 5 7 15 19 17 17 25 35 34 13 299 357 37 221 186 193 201 192 175 152 130 131 130 168 186 190 194 201 206 208 208 208 203 195 193 195 194 195 198 200 203
3 2 3 7 11 14 15 16 19 19 15 14 16 17 18 20 20 20 19 18 20 20 17 12 6 1 1 1 360 0 3 8 10 7 6 11 16 16 16 25 39 40 31 356 277 243 246 274 262 240 213 199 191 172 150 132 153 182 186 188 197 207 210 211 214 214 208 200 195 195 195 194 195 197
17 16 14 17 19 18 17 17 19 17 14 15 18 18 20 21 20 20 19 17 16 15 9 5 4 2 1 2 5 9 13 14 14 13 10 9 12 14 14 16 23 26 27 23 1 271 239 247 267 273 228 214 210 196 177 153 148 174 185 187 189 200 210 212 215 217 217 216 210 202 198 197 196 198
24 23 20 21 21 19 19 19 20 20 18 18 19 18 19 20 19 19 19 18 16 13 8 5 5 5 6 8 11 15 16 15 15 16 13 9 10 11 10 9 7 6 7 13 15 357 262 242 248 257 236 221 221 215 203 187 165 167 180 187 186 190 205 208 210 216 218 220 221 215 208 205 203 202
24 24 22 23 22 21 20 19 18 18 17 17 17 17 16 17 17 17 18 18 18 15 11 8 8 8 9 10 11 13 15 14 13 14 14 11 9 9 11 11 3 357 354 356 2 2 340 260 242 246 247 239 236 228 215 205 189 177 180 187 189 193 204 203 204 210 213 214 218 220 219 219 216 213
26 27 25 24 21 19 18 16 14 13 11 11 13 14 14 14 15 16 16 15 13 11 10 10 9 8 8 9 9 11 13 14 13 13 13 13 12 12 13 10 1 357 350 346 349 352 349 324 255 244 247 250 252 242 222 207 203 196 191 190 190 193 203 205 203 202 202 202 206 211 217 221 222 222
31 28 25 23 20 17 16 14 11 9 7 7 7 8 10 12 12 13 14 12 10 9 9 10 9 7 7 8 8 8 9 10 11 10 11 14 16 14 10 1 354 354 349 342 345 349 346 332 289 245 241 242 247 247 231 214 207 204 201 199 198 197 197 202 203 201 199 198 198 198 205 215 219 220
33 28 25 21 18 17 17 14 10 7 6 6 4 3 6 9 10 10 10 8 8 8 9 9 9 9 8 7 6 7 7 7 8 9 11 13 14 12 7 356 348 348 345 338 341 348 346 329 287 235 237 238 234 241 237 226 215 205 198 199 204 205 202 200 201 201 199 198 196 192 194 205 213 215
34 28 25 21 16 15 15 12 10 8 7 6 4 3 3 4 6 7 6 5 8 10 10 9 9 9 7 5 4 5 7 7 6 6 7 8 7 5 1 355 349 345 341 337 340 347 346 329 267 201 172 198 205 225 235 225 218 211 201 198 203 207 206 203 199 197 196 194 193 192 190 198 207 210
30 25 24 20 16 15 13 10 9 9 8 7 6 5 4 1 2 4 5 6 10 11 11 10 10 8 7 4 3 4 7 7 5 2 360 359 1 1 356 350 349 345 340 342 347 351 350 344 313 224 202 204 208 222 228 217 216 215 211 204 202 204 205 199 192 193 195 194 195 196 195 198 206 210
27 22 20 17 14 13 12 10 9 8 8 7 6 6 4 3 3 5 7 9 10 10 10 11 10 9 8 7 5 3 2 2 2 1 357 354 356 359 353 345 343 343 339 340 345 351 357 3 4 359 356 345 203 218 211 190 205 212 212 209 205 204 201 194 188 191 195 196 198 202 202 203 208 210
24 21 18 14 12 11 10 10 9 8 7 8 7 6 5 4 5 7 8 8 8 8 9 10 9 7 8 8 7 4 1 0 360 358 355 350 349 352 351 344 341 343 339 336 341 351 359 4 3 357 349 328 299 301 304 289 232 215 211 209 208 205 200 195 192 193 194 195 197 198 197 201 208 205
19 20 17 14 12 11 10 10 10 9 8 8 9 8 6 6 7 7 7 6 6 7 8 8 8 8 8 8 7 5 4 3 1 355 351 348 348 350 350 345 342 343 340 336 341 347 349 346 342 337 327 312 304 303 297 287 275 231 213 210 211 212 209 204 198 194 192 193 194 190 185 186 188 183
14 16 17 15 13 12 11 10 10 10 10 9 10 9 10 10 10 8 6 6 7 6 6 7 7 7 7 7 7 6 4 2 0 357 352 349 349 350 350 349 348 347 344 343 341 337 333 334 335 334 329 322 315 304 285 265 239 209 210 212 214 218 220 219 213 207 202 196 190 183 180 185 188 185
11 12 14 15 14 13 13 12 11 11 10 11 11 10 10 11 11 9 8 8 8 7 6 6 6 5 5 6 6 6 4 2 359 357 355 352 350 350 350 352 351 347 342 337 329 323 326 334 342 346 347 344 334 308 245 208 195 197 202 211 217 217 219 224 226 225 222 213 199 187 177 171 171 176
10 11 14 15 16 15 14 13 13 12 11 11 11 11 10 10 10 10 8 7 6 6 4 3 3 4 4 4 4 5 5 3 358 356 356 355 352 350 348 346 344 342 339 332 323 324 332 344 352 354 352 347 340 332 312 266 231 211 207 213 220 218 218 222 226 228 231 231 226 220 214 206 200 199
8 10 13 15 16 17 16 14 14 13 12 11 11 11 10 9 8 8 7 6 4 3 2 1 2 2 2 2 2 3 3 1 358 357 355 354 353 350 346 344 342 342 342 338 332 332 338 346 351 352 347 339 336 332 325 326 325 275 232 227 226 225 222 221 222 226 229 230 230 231 231 231 234 238
6 9 12 15 16 16 17 15 14 13 12 11 10 10 9 8 7 6 6 5 3 0 359 359 360 0 0 0 360 360 359 358 358 358 357 356 354 352 350 348 346 344 345 345 341 336 336 341 348 351 345 339 339 334 321 319 322 310 286 259 238 234 233 228 224 227 230 232 232 231 231 233 235 239
Height
710 707 704 702 699 695 693 691 688 687 684 682 680 676 674 671 664 657 649 639 631 626 624 621 618 617 616 615 614 614 614 614 615 616 617 617 618 619 621 623 626 628 629 630 631 633 634 635 637 640 643 645 648 650 652 656 659 661 663 665 667 670 674 677 680 684 688 691 695 699 704 709 712 715
708 704 701 699 695 692 690 688 686 684 681 678 676 673 671 668 664 658 650 639 630 626 621 619 618 616 614 614 612 611 611 612 613 614 614 615 616 617 619 620 623 625 626 627 628 630 631 633 635 637 640 642 644 646 649 653 656 659 661 663 665 668 672 675 677 681 685 689 693 696 701 706 709 712
706 702 699 696 693 690 688 685 683 680 678 675 673 670 667 664 659 656 651 640 628 623 620 616 615 615 613 612 611 609 609 610 610 611 611 612 613 615 616 617 620 622 623 624 625 627 629 630 632 634 637 639 641 643 646 650 653 656 659 661 663 666 669 672 675 679 683 686 690 694 698 702 705 710
704 701 698 694 691 688 685 683 681 678 675 672 669 665 662 659 655 651 648 641 627 618 616 614 612 613 612 610 609 607 607 607 607 608 609 610 611 613 614 615 617 619 621 622 623 624 626 627 629 632 634 636 638 641 644 647 651 654 657 660 662 664 667 670 673 676 680 684 687 691 694 698 702 707
702 699 696 692 689 687 684 681 679 676 672 669 665 662 658 654 651 648 644 639 628 614 610 612 609 609 610 608 606 606 605 605 605 606 606 607 609 610 611 612 614 616 618 620 621 622 623 625 627 629 631 633 637 640 642 644 648 652 656 658 661 663 664 667 671 674 677 681 684 688 691 696 700 704
699 696 694 691 687 685 682 679 677 673 670 666 662 659 656 651 647 645 640 636 628 613 605 608 607 606 606 605 603 603 603 603 603 603 604 605 606 607 609 610 611 613 615 617 619 620 621 623 625 627 630 632 635 639 641 642 645 649 654 656 658 661 662 664 668 672 674 678 682 686 690 694 698 701
697 694 691 689 686 683 680 677 675 671 667 664 660 656 653 649 643 640 637 632 626 612 603 604 604 603 603 601 600 601 601 601 601 601 601 602 604 605 606 607 608 610 612 614 616 618 619 621 623 625 628 631 634 638 640 642 643 647 652 654 655 658 660 661 664 669 672 675 680 684 688 692 695 698
695 693 690 687 685 682 679 676 673 669 665 661 658 653 649 645 640 635 631 626 621 611 602 601 602 601 600 599 598 598 598 598 599 599 600 601 602 603 604 605 606 607 609 611 613 615 617 618 621 623 626 630 633 636 639 641 642 645 649 651 652 655 658 659 661 665 669 673 677 682 685 688 692 695
695 692 690 687 684 681 678 675 670 667 663 658 654 650 645 641 636 631 626 620 615 609 602 599 600 600 598 596 595 595 595 596 597 598 598 599 600 601 602 604 605 606 607 609 611 613 615 617 619 621 625 628 631 634 637 639 642 644 646 648 650 653 655 657 659 662 665 669 674 679 682 685 689 692
695 692 689 686 684 680 676 672 668 664 660 656 651 646 641 637 633 627 621 616 610 605 601 599 599 597 595 594 593 593 593 594 595 596 597 598 599 600 601 602 603 605 606 608 609 611 614 616 618 621 624 627 630 632 635 638 641 643 644 645 648 651 653 655 658 660 663 666 670 675 678 682 686 691
694 691 689 685 682 679 675 671 666 661 656 652 648 643 639 634 630 624 618 612 607 602 599 598 597 594 592 591 591 592 592 593 593 595 596 597 598 599 600 600 602 604 605 606 608 610 612 614 617 620 623 626 629 631 633 636 639 641 642 643 646 649 652 653 655 659 661 663 667 672 676 680 684 689
694 690 687 684 680 677 674 670 666 661 656 650 645 641 637 632 627 621 615 610 606 600 596 595 594 592 591 590 591 591 591 592 592 593 594 596 596 597 598 599 600 602 604 605 606 608 610 613 616 619 622 624 627 630 632 635 637 638 640 643 645 648 650 651 653 657 660 663 666 670 674 678 682 687
693 690 686 683 679 675 671 667 663 659 655 650 644 640 636 631 626 621 615 611 605 599 595 592 591 590 590 590 590 590 589 590 591 592 593 595 595 596 598 599 599 601 602 604 605 606 608 610 614 617 620 622 625 628 630 633 635 636 638 641 643 646 648 650 653 656 660 663 666 670 673 677 681 685
692 689 685 681 677 673 668 663 660 655 651 647 643 639 635 631 627 623 617 611 605 601 597 593 590 590 590 590 589 588 588 589 590 591 593 594 595 596 597 598 599 600 601 602 604 605 606 609 612 615 617 619 622 625 627 630 632 633 636 639 641 644 646 649 653 656 658 661 665 668 672 675 679 683
691 688 684 679 675 671 665 660 656 651 647 644 641 638 635 631 628 623 617 611 607 605 602 597 594 594 593 590 589 588 587 588 589 590 591 593 594 595 596 597 598 599 600 601 603 605 606 608 610 613 615 617 620 622 624 627 630 632 634 637 639 642 644 648 652 655 657 660 663 667 670 673 676 680
691 687 683 678 674 669 664 659 653 648 645 644 641 637 634 630 626 621 617 613 610 608 605 601 599 598 595 591 589 588 587 587 588 589 590 591 592 593 594 595 596 597 599 600 602 604 606 607 609 611 613 616 618 620 622 626 629 632 634 635 637 640 643 646 651 654 656 659 662 665 668 671 675 679
691 687 682 677 672 668 664 659 652 647 644 642 639 635 631 627 623 619 617 615 613 611 608 605 602 599 596 593 590 588 587 587 587 588 589 590 591 592 593 594 595 597 598 600 602 604 606 607 609 610 612 614 617 619 622 624 628 631 633 634 636 639 642 646 650 654 656 658 661 664 667 670 674 678
692 688 683 677 672 668 664 659 653 648 644 640 637 633 630 626 622 619 617 614 612 611 609 606 603 599 596 594 592 589 587 587 587 588 588 589 590 591 593 594 595 596 598 599 601 604 606 607 608 610 612 613 616 618 621 623 626 629 631 633 635 638 642 646 649 652 654 656 658 662 665 669 673 677
693 689 684 679 673 668 665 660 654 650 645 641 638 634 631 627 623 621 618 615 613 611 608 606 602 599 597 595 592 590 588 588 588 588 588 589 590 592 593 594 595 596 597 599 600 602 605 606 607 610 612 613 615 617 620 622 625 627 630 632 635 638 641 645 648 651 653 655 657 660 663 667 671 674
694 689 685 680 674 670 667 661 656 652 647 643 639 635 632 628 625 622 619 617 614 611 608 605 602 599 596 595 593 591 589 588 588 588 589 590 591 592 593 594 595 596 597 598 599 601 604 606 608 610 612 614 615 617 619 622 624 627 629 632 635 638 641 644 647 649 652 655 657 659 662 665 668 672
694 690 687 681 675 672 668 663 658 654 649 645 641 637 634 630 626 622 618 615 613 610 607 605 602 598 596 594 594 592 591 590 589 589 591 592 592 592 593 595 596 596 597 598 599 600 603 606 607 610 612 614 615 617 619 621 623 626 629 631 635 638 640 643 646 648 651 653 656 659 661 663 666 669
695 691 688 683 678 674 670 665 661 656 652 649 645 640 636 631 627 624 619 614 610 607 605 603 601 599 597 596 595 595 594 593 592 592 593 594 594 594 594 595 596 597 598 599 599 601 603 605 607 609 612 615 616 617 618 620 622 625 628 631 633 636 639 642 645 647 650 652 655 658 660 662 664 667
695 692 688 684 680 676 672 667 663 659 656 653 649 645 640 634 631 629 625 620 614 609 606 604 602 601 600 599 598 597 597 596 595 595 596 596 596 596 596 596 597 598 599 600 600 602 603 605 607 609 611 614 616 617 618 620 621 623 626 629 632 635 638 640 643 646 648 651 653 656 658 660 662 665
696 692 689 685 682 678 674 669 666 662 658 656 654 650 645 641 637 634 629 625 621 617 614 611 608 606 604 603 601 600 599 598 598 598 598 598 599 599 598 598 598 599 600 601 601 603 604 606 607 608 610 612 614 616 618 619 621 623 625 627 630 633 636 639 642 644 646 649 651 654 656 658 661 663
698 695 691 687 684 681 676 672 668 665 661 659 656 653 650 648 644 638 632 628 625 622 619 615 611 609 607 605 604 603 602 601 601 600 600 600 601 601 601 601 601 601 602 603 603 604 605 606 608 609 610 611 612 615 617 619 621 622 624 626 628 631 634 637 639 642 644 647 649 652 654 657 659 662
701 698 694 691 687 684 680 675 671 668 664 661 658 655 653 650 646 641 636 632 628 624 621 617 615 613 611 609 608 606 605 605 604 603 603 602 602 603 603 603 603 604 605 605 605 606 606 607 608 610 611 612 613 615 617 619 620 622 623 625 628 630 632 634 637 640 642 644 647 649 652 655 658 661
704 700 698 695 691 687 683 679 675 671 668 665 662 659 655 651 647 643 639 635 631 627 624 622 620 619 618 616 614 611 610 609 608 607 606 605 604 604 604 604 604 605 606 606 606 607 607 608 609 610 611 612 614 615 617 618 620 621 622 625 627 629 631 633 635 638 640 643 645 647 651 654 656 659
706 703 701 697 693 689 686 682 678 675 671 669 666 662 658 654 650 646 642 639 636 633 630 629 628 627 626 624 621 618 616 614 612 610 609 607 606 605 605 605 605 605 606 606 607 607 608 609 610 611 612 613 614 615 617 618 619 620 622 624 626 628 630 632 634 637 639 641 644 646 648 651 654 658
709 706 703 698 694 690 686 683 679 676 674 672 669 665 661 656 652 650 647 644 641 639 638 637 636 634 632 630 627 624 621 617 614 612 610 609 608 607 606 606 606 606 606 607 607 608 609 610 611 612 613 614 615 616 617 618 619 620 622 624 626 627 629 631 633 635 637 639 642 644 646 649 652 655
708 705 701 698 694 691 689 686 683 680 677 674 670 666 663 659 656 654 652 649 647 646 645 644 643 641 638 635 631 627 623 620 617 615 612 610 609 608 607 607 607 607 607 607 608 608 609 610 611 612 613 614 615 616 617 618 619 621 622 624 626 628 629 631 632 634 636 638 640 642 645 648 650 653
707 705 703 700 697 694 691 688 685 682 679 675 671 668 666 664 662 661 659 657 655 654 652 650 648 645 641 637 633 629 626 624 621 619 617 614 612 611 610 609 609 608 608 608 609 609 610 610 611 612 613 614 615 617 618 618 619 620 622 624 625 627 628 630 632 633 635 637 639 641 643 646 649 651
709 706 703 699 696 692 689 686 684 682 680 678 676 674 672 669 667 666 664 661 659 658 656 653 650 647 643 639 636 633 630 628 625 623 621 619 617 615 613 613 612 611 610 609 609 610 610 611 612 612 613 614 615 616 617 618 619 620 622 623 625 627 628 629 631 633 635 637 638 640 642 644 646 648
709 706 702 698 696 693 691 689 687 685 684 682 680 679 677 674 671 669 666 664 662 661 659 656 653 650 646 643 640 637 634 631 629 627 625 623 621 619 617 617 617 616 614 612 611 611 611 611 612 613 613 614 615 616 617 618 619 620 621 623 624 626 627 629 630 632 634 636 638 640 641 643 644 647
709 707 705 704 703 701 699 697 695 693 691 688 685 683 681 679 676 673 671 670 668 666 663 660 657 654 651 647 645 642 639 636 633 631 630 627 625 623 622 621 620 619 618 616 614 613 612 612 612 613 613 614 615 616 617 618 618 619 621 622 624 625 627 628 629 631 633 634 636 639 641 642 643 645
712 711 711 710 709 708 706 704 702 700 697 694 691 688 685 683 681 679 677 675 673 670 667 664 661 658 655 652 649 647 644 640 638 635 632 630 629 628 627 626 625 623 621 620 617 615 614 613 613 613 614 614 615 616 616 617 618 619 620 621 623 624 626 627 629 630 632 634 636 638 640 641 643 644
715 716 715 714 713 712 710 708 707 705 702 699 697 693 690 687 685 683 682 680 678 674 671 668 665 663 660 658 655 652 648 645 642 639 636 634 633 632 631 630 629 627 625 623 621 618 616 614 614 614 614 615 616 616 616 616 617 618 619 621 622 623 625 626 628 629 630 632 634 636 638 639 641 642
719 719 718 717 716 715 713 712 710 708 706 703 701 698 696 693 690 688 686 683 680 677 675 673 670 668 665 662 659 656 653 651 647 645 642 640 638 636 634 633 631 630 627 625 623 621 619 616 615 615 615 615 616 616 616 616 617 618 619 620 621 622 624 625 626 628 629 631 633 634 636 637 639 641
722 722 721 720 718 717 715 714 712 710 708 706 703 701 699 696 693 690 687 684 682 679 677 675 673 671 668 666 663 660 657 655 652 650 648 645 643 642 639 637 634 632 630 627 625 623 621 619 618 618 617 616 616 616 616 616 616 616 617 619 620 621 623 624 625 626 628 630 632 634 635 637 638 640
725 724 723 722 720 719 717 715 713 711 709 707 705 703 700 698 695 692 689 687 685 682 680 678 676 674 672 669 667 664 662 659 657 655 653 651 649 647 644 641 638 635 632 630 627 625 624 623 622 622 622 621 619 617 617 616 615 615 616 618 619 620 621 623 624 625 627 629 631 633 635 637 638 640
727 726 725 723 722 720 719 717 715 713 711 709 707 705 703 700 697 695 692 690 688 685 683 681 679 677 674 672 670 667 665 663 662 660 657 655 653 650 648 646 643 640 636 633 630 627 626 625 625 624 623 622 619 618 617 616 615 615 616 617 618 620 621 622 623 625 627 629 631 633 635 637 638 640
728 727 725 724 723 721 719 718 716 714 712 710 708 706 704 702 700 698 696 694 691 688 686 684 681 679 677 675 673 671 668 666 664 662 660 657 655 653 651 648 645 642 639 636 633 631 629 627 626 624 622 619 616 616 616 615 615 615 615 616 618 619 621 622 623 625 626 628 630 632 635 637 638 640
729 728 726 725 723 722 720 719 717 715 713 711 709 707 705 703 701 700 697 695 693 690 688 686 684 682 680 678 676 674 672 670 667 665 663 660 658 655 652 650 647 645 643 640 638 635 631 628 624 621 619 617 616 615 614 614 614 614 615 616 617 618 620 621 623 624 626 627 629 631 634 636 639 640
730 729 727 725 724 722 720 719 717 716 714 712 710 708 706 703 701 700 697 695 694 692 690 688 686 684 682 680 678 676 675 673 670 668 665 663 661 658 655 653 651 649 646 643 640 635 631 628 624 621 619 617 616 615 613 613 613 613 614 615 616 617 619 620 622 623 625 626 628 630 632 634 636 638
730 729 727 726 724 722 721 719 718 716 714 713 710 709 707 704 702 701 699 697 695 693 692 690 687 685 683 681 679 677 676 674 673 670 668 666 664 661 659 656 653 651 648 644 640 636 632 628 626 623 621 619 618 616 614 613 613 613 613 614 615 616 618 619 621 622 623 625 626 628 630 631 633 635
731 729 727 726 724 723 721 720 718 716 715 713 711 709 707 705 703 701 700 698 696 694 692 690 689 687 685 683 681 679 677 675 674 671 669 667 665 663 660 658 655 652 650 646 643 638 634 631 628 626 623 621 619 618 616 614 614 613 614 614 615 616 617 618 620 621 622 623 624 626 628 630 632 634